Terminal Aerodrome Forecast
Issued by NWS

Home | Current Version | Previous Version | Graphics & Text | Print | Product List | Glossary Off
Versions: 1 2 3 4 5 6 7 8 9 10 11 12 13 14 15 16 17

000
FTUS43 KDDC 310119 AAA
TAFGCK
TAF AMD
KGCK 310119Z 3101/3124 17010KT P6SM BKN200
     FM310200 14012G22KT P6SM BKN200
     FM310600 12009KT P6SM VCTS OVC090CB
      TEMPO 3109/3113 VRB15G35KT 4SM -TSRA OVC040CB
     FM311300 03015G25KT 3SM -RA OVC030
     FM311800 04018G28KT 4SM -SHRA OVC030=

USA.gov is the U.S. government's official web portal to all federal, state and local government web resources and services.